Location: *
(53.9002°N, 27.5624°E)
Time: 20:36:13
(UTC+00:00)

Meteor 2-2 Rocket - Pass Details

Date: 12 November 2019
Orbit: 852 x 929 km, 81.3° (Epoch: 10 December)

Event Time Altitude Azimuth Distance (km) Brightness Sun altitude
Rises 15:49:38 0° 176° (S) 3,524 7.5 -13.6°
Reaches altitude 10° 15:52:08 10° 173° (S) 2,577 6.8 -14.0°
Maximum altitude 15:57:51 57° 96° (E) 1,048 4.4 -14.8°
Drops below altitude 10° 16:03:30 10° 20° (NNE) 2,542 6.4 -15.6°
Sets 16:05:57 0° 16° (NNE) 3,474 7.2 -16.0°
